CAPE
1789 1679 2134 1888 1703 1860 1778 1965 1734 2007 2134 1787 1117 1081 944 761 870 341 623 146 6 2 69 125 288 517 525 552 760 768 905 650 620 430 614 460 765 1274 1218 1280 716 638 658 564 598 441 296 134 82 35 15 0 0 0 0 1 0 0 1 2 3 10 9 6 6 9 7 4 0 0 0 0 0 0 0 1 6 11 40 114 222 245 281 366 430
1845 2200 1930 1857 1926 1752 2006 2244 1715 2327 2135 1946 1717 1546 1892 1075 1142 594 353 733 330 28 4 67 110 301 522 381 456 703 502 356 333 392 362 622 719 2115 1116 1109 958 880 550 770 704 599 410 334 205 95 100 23 0 0 0 1 0 0 2 1 1 4 5 8 7 7 8 5 2 2 1 0 0 0 0 0 6 8 33 27 81 154 230 236 286
1982 1884 1772 1258 1707 1378 1916 1850 1877 1618 1670 1566 1410 1725 1801 1335 1602 1233 1221 897 1063 514 206 90 82 191 560 579 497 694 553 521 391 730 536 768 810 1167 1112 1181 1330 840 887 706 790 707 606 510 284 163 170 112 0 0 0 0 1 0 0 2 0 2 5 8 9 9 6 7 6 3 3 3 0 0 2 3 15 17 11 41 96 176 186 186 229
1977 1743 1636 1794 2026 1391 1458 1498 1657 1586 1324 2083 2029 1608 1600 1402 1611 1687 1480 1245 778 528 592 703 403 205 258 728 802 802 891 794 593 200 492 635 539 638 1066 1326 1099 1276 935 929 761 843 721 693 296 244 318 169 23 0 0 0 3 2 2 3 2 0 3 8 8 9 8 10 12 12 8 5 3 0 5 7 12 15 8 13 38 130 125 121 187
2259 2272 1985 1810 1950 1979 1778 1926 1912 1726 1825 2171 2104 1857 1709 1808 1582 1758 1628 1534 1152 1117 556 620 690 534 328 515 722 932 1158 1154 945 831 830 975 1126 1040 944 1232 1491 1197 1016 963 941 808 840 963 650 222 363 231 21 0 0 0 0 1 2 3 2 0 3 5 9 7 9 8 10 17 18 8 5 4 4 9 10 14 15 13 21 33 58 72 136
2269 2383 2123 2021 2129 1928 2096 2168 2208 2426 2262 2451 1891 1492 1613 1780 1704 1553 1335 1520 1258 1182 1351 1197 795 873 636 606 463 619 837 1125 1261 990 698 700 845 1088 1130 1267 2360 1641 1064 1245 1141 930 809 706 798 539 304 541 397 11 2 0 0 1 0 1 3 1 3 4 9 12 9 6 9 16 20 14 9 5 7 10 13 14 16 16 18 30 46 96 105
2334 2469 2306 1995 1820 1945 1963 2076 2255 2425 2204 2270 2168 1825 1686 1645 1674 1706 1586 1525 1051 1346 1408 1283 1664 1104 1193 1432 920 710 601 935 1102 1369 1269 911 722 804 1071 1103 1068 1517 1301 1300 1284 1106 708 818 722 838 760 404 71 18 4 0 9 3 0 0 2 1 0 2 6 11 11 9 9 22 16 18 14 6 6 10 14 13 15 20 25 22 24 54 73
2353 2226 2678 2085 1839 1958 2050 2253 2033 2251 2318 2283 2115 1904 1878 1911 1721 1708 1875 1576 1177 1189 1180 1496 1745 1781 2179 1804 1252 1176 899 1088 1041 1010 1304 1381 918 880 1050 1247 1234 993 1466 1623 1552 985 921 708 683 670 730 757 206 61 10 6 13 113 11 6 5 2 0 1 5 6 12 11 9 20 18 20 18 8 6 9 10 13 13 22 23 17 19 24 37
2446 2282 2357 2336 2112 2090 2212 2382 2301 2028 2321 2439 2078 1769 1900 1892 1914 1685 1873 1576 1458 1328 1367 1450 1493 1422 1728 2185 1853 1900 1372 1225 1707 1617 1036 1037 1423 1226 1000 864 1298 1364 1464 894 1221 1292 928 706 707 560 597 689 655 190 134 25 15 109 26 18 2 3 1 0 6 6 8 9 12 11 20 20 23 12 7 7 8 12 12 17 19 11 11 14 23
2081 1929 2481 2266 2064 2235 2215 2242 2195 2010 2472 2223 1910 1792 1862 1832 1664 1689 1664 1454 1622 1358 1524 1312 1359 1453 1514 1575 1765 2082 1895 2068 994 1341 1409 1151 1112 1510 1168 867 666 1236 1409 1216 1163 1395 1199 980 775 648 601 436 419 568 95 138 88 176 280 161 18 2 2 2 4 5 4 7 8 9 23 21 18 15 8 11 10 11 13 17 14 10 8 9 14
1810 1978 1833 1961 2019 2167 2308 2059 2077 2186 2165 2163 2123 2029 2128 2105 1753 1960 2025 2085 1862 1809 1713 1485 1441 1352 1439 1499 1682 1670 1619 1657 1370 1482 1732 1504 1492 1260 1673 1124 1092 1203 1399 1698 1583 1463 1771 1431 1003 652 571 452 359 600 235 88 197 198 395 378 244 10 1 4 5 3 3 3 4 8 18 23 18 13 13 11 10 12 12 10 11 11 8 8 8
1691 2315 2344 2077 1986 2144 1889 2194 1936 2008 2304 2079 1870 1490 1944 2235 2267 2101 2073 1884 1704 1641 1538 1515 1507 1450 1459 1503 1625 1690 1873 1904 1694 1767 1752 1270 1502 1256 1473 1393 1370 1709 1676 1770 1756 1578 1532 1449 1429 858 615 494 310 300 476 432 317 267 401 501 331 244 6 2 3 4 2 3 3 3 22 20 20 14 15 8 10 12 10 10 11 11 13 14 9
2030 2382 2265 2084 2139 2275 2256 2216 2006 1949 1456 1391 1770 2089 1960 1994 1969 1978 1899 1816 1790 1590 1568 1558 1514 1435 1366 1495 1614 1765 2021 1718 2107 2149 1727 1376 1126 1348 1174 1135 1146 1668 1741 1678 1648 1664 1451 1373 1073 1034 1305 1239 532 263 180 237 374 412 288 428 478 305 207 34 18 5 3 2 5 2 12 9 16 19 16 14 12 10 12 11 10 10 14 15 12
2160 1932 2201 1974 1950 1939 1874 1798 1599 1510 1583 1654 1402 1350 1612 2146 2001 1954 1899 1892 1499 1581 1478 1529 1423 1229 1083 1303 1316 1240 1655 1772 1875 1709 1478 1590 1435 1490 1549 1059 1226 1553 1759 1593 1460 1422 1523 1399 1473 1370 965 1414 1294 612 295 170 158 304 362 367 459 531 394 186 21 87 7 2 4 1 9 5 7 14 19 15 15 16 17 13 10 10 10 11 15
1698 1114 1792 1878 1800 1606 1655 1707 1622 1444 1789 1624 1622 1338 1159 1600 1813 1940 1205 1443 1227 1133 1485 1738 1497 1572 1573 1259 1336 1144 1112 1668 1481 1805 1558 1752 1629 1574 1497 1433 1516 1249 1623 1793 1464 1356 1417 1481 1531 1742 1867 1745 1160 1076 569 324 151 181 319 385 373 518 520 338 193 144 35 3 1 2 6 7 6 7 15 23 20 21 21 19 14 12 13 11 14
919 886 1211 1519 1626 1508 1550 1532 1448 1218 1604 1468 1727 1617 1158 1178 1860 1971 1632 1304 1494 1243 1652 1542 1648 1294 1126 903 953 795 664 512 1082 1564 1875 1953 1802 1331 1593 1567 1365 1097 1280 1426 1770 1605 1547 1572 1614 1681 1749 1564 892 1031 900 725 300 225 181 128 247 452 572 402 384 385 283 98 4 3 1 11 6 3 10 23 29 30 30 26 18 13 12 18 15
955 816 862 1022 1178 1210 1456 1076 1037 1009 850 992 1231 1092 1271 1086 1318 1320 1517 1383 1346 1235 1434 1821 1448 1532 1237 960 826 646 575 776 988 986 793 1352 1546 1971 1990 1179 1362 1324 1312 1198 1430 1800 1687 1712 1605 1430 1559 1309 1356 1126 1013 1049 1036 778 382 152 160 262 472 453 390 565 958 176 82 12 1 40 6 4 5 21 34 36 32 24 18 12 21 24 18
546 772 650 622 927 934 905 956 814 874 1062 973 965 930 867 1098 1072 1121 1318 1353 1370 1228 1198 1384 1630 1722 1457 1431 1500 840 855 999 895 726 876 876 881 676 1163 1313 1517 1495 1725 1302 1010 984 1368 1465 1315 1188 1381 1410 1280 1105 770 598 780 679 547 255 4 71 271 491 531 360 890 82 113 73 4 100 4 3 1 9 19 28 22 23 20 11 13 16 24
623 490 395 421 510 680 827 857 843 775 514 874 874 855 789 733 785 1077 1100 1060 1225 1083 931 1094 1113 1477 1759 1600 1477 1322 1678 1426 911 853 764 871 951 848 836 1226 1227 1483 1356 1310 1208 1063 1377 1138 1136 1186 1290 1112 1080 1014 943 653 493 526 744 377 60 0 1 43 521 718 757 956 292 433 30 186 2 1 1 5 11 24 24 21 17 9 13 12 21
277 231 199 309 295 327 301 313 295 335 203 380 231 122 220 386 509 639 795 889 1027 1166 1126 870 1007 1019 952 1033 1082 1164 1589 1739 1769 978 676 768 761 706 765 737 1087 1635 1726 1681 1700 1539 1454 1386 1170 888 1088 1204 1278 1236 1305 965 984 913 779 412 188 103 14 0 70 338 508 1114 825 615 213 82 63 1 3 0 7 19 21 22 18 8 9 20 19
82 60 100 103 90 147 27 45 65 40 20 52 6 14 52 221 297 321 308 377 528 534 587 859 1032 979 926 1031 1052 896 872 914 1078 1332 1343 1239 607 784 878 840 918 1065 1838 1764 1496 1436 1175 1104 996 1466 1146 942 1025 1140 1136 1311 1608 1448 848 360 87 69 105 76 0 29 192 197 501 455 183 70 58 2 4 0 7 13 21 20 17 18 12 16 19
11 10 11 10 11 12 14 8 6 5 0 8 10 6 7 4 50 76 80 138 246 250 284 444 575 676 678 737 860 891 799 754 733 656 725 856 876 687 644 702 695 749 1222 2150 2173 1579 1289 1306 1589 1121 830 933 1112 1064 1174 1225 1363 998 748 333 265 121 82 96 53 3 0 0 237 440 205 381 80 49 14 4 16 13 15 23 18 12 16 17 14
11 13 10 8 10 13 11 9 7 7 5 7 9 9 11 10 15 16 13 12 25 58 110 178 145 160 262 275 332 404 504 634 721 742 736 547 490 604 632 588 594 707 784 725 1094 1284 962 1270 1364 1256 1189 1440 1000 986 944 1223 955 784 615 517 471 320 183 117 112 72 21 0 0 259 416 418 520 26 16 7 3 39 16 14 21 20 13 10 15
9 9 11 10 9 5 8 7 7 8 6 7 5 8 7 10 12 11 11 10 10 10 9 16 8 9 15 11 10 46 140 279 344 416 597 527 557 579 527 447 532 542 622 678 572 456 611 960 1239 1327 1269 1399 1797 1912 1718 1371 1054 856 651 494 373 337 206 105 122 149 70 57 0 21 438 341 598 220 24 33 15 2 2 45 22 23 14 18 18
7 7 9 7 8 8 6 7 6 6 8 6 5 4 2 4 7 6 2 6 5 6 6 9 9 11 10 8 9 10 13 18 38 69 125 280 397 402 509 434 507 543 539 565 671 549 382 410 511 1146 1130 1188 1084 1501 1340 1293 1043 806 648 580 388 314 261 146 124 126 134 64 37 7 180 495 641 174 14 5 30 64 29 69 15 2 3 2 9
6 8 7 7 6 4 4 5 4 3 0 0 0 0 0 0 2 0 0 0 0 2 4 4 8 9 8 7 9 6 7 12 17 17 16 13 21 81 106 167 313 370 397 338 367 336 454 517 356 1098 1871 1528 1196 836 1231 1280 880 858 678 842 615 369 322 238 160 153 167 169 78 38 1 168 228 139 145 16 37 18 1 4 0 0 0 0 0
5 6 5 6 3 2 3 1 0 0 0 0 0 0 0 0 0 0 0 0 0 0 2 4 6 6 6 9 5 7 7 10 11 12 11 14 15 17 17 15 7 32 147 272 279 389 438 488 518 658 898 674 555 1072 1166 1708 1349 917 800 584 1057 463 330 251 175 157 184 182 170 64 46 0 144 164 139 15 2 0 1 7 0 0 0 0 0
5 5 4 4 4 1 2 0 0 0 0 0 0 0 0 0 0 0 0 0 0 0 0 2 5 4 6 9 7 7 9 14 13 14 14 14 14 14 14 16 18 11 3 2 75 247 295 431 348 381 653 1886 1673 1791 1692 1326 1010 865 789 815 830 818 370 231 171 122 116 160 171 158 85 56 69 130 120 67 0 0 16 10 1 0 0 0 0
6 4 4 0 2 0 0 0 0 0 0 0 0 0 0 0 0 0 0 0 0 0 1 1 5 9 10 7 8 10 12 13 14 12 14 15 15 15 14 16 18 22 18 11 3 5 72 241 304 326 282 825 2239 831 756 967 962 1096 935 989 1032 1184 738 366 205 140 101 111 166 234 164 83 38 70 98 114 0 0 1 11 4 1 0 0 0
4 4 3 0 0 0 0 0 0 0 0 0 0 0 0 0 0 0 0 0 0 0 0 0 3 5 8 6 10 9 13 12 9 12 13 16 18 15 13 15 16 20 23 20 14 6 2 2 44 119 158 164 196 922 1186 1213 791 876 939 989 1197 1314 971 542 302 190 155 129 136 240 317 148 45 20 64 128 39 0 4 0 4 2 0 0 0
2 0 0 0 0 0 0 0 0 0 0 0 0 0 0 0 0 0 0 0 0 1 0 0 0 2 6 7 6 10 14 12 14 15 15 13 14 13 17 14 12 16 15 19 17 3 4 7 0 0 0 0 0 351 1105 1134 658 537 560 874 1278 1100 955 714 428 259 226 191 172 180 305 276 79 36 7 68 128 0 0 10 0 5 0 0 0
0 0 0 0 0 0 0 0 0 0 0 0 0 0 0 0 0 0 0 0 0 0 0 0 2 2 2 1 2 7 10 14 14 16 16 16 18 14 14 13 14 15 17 15 13 11 3 7 2 0 0 0 0 0 0 209 957 116 709 713 725 824 880 844 586 451 312 247 212 181 224 329 216 101 50 20 75 71 0 0 3 4 0 0 0
0 0 0 0 0 0 0 0 0 0 0 0 0 0 0 0 0 0 0 0 0 0 0 0 0 0 0 0 1 5 11 13 16 15 14 13 14 15 16 15 13 15 14 14 12 10 3 0 0 0 0 0 0 0 0 0 36 755 769 873 648 752 933 923 867 517 352 274 208 207 209 282 346 237 131 58 43 76 0 0 0 8 0 0 0
0 0 0 0 0 0 0 0 0 0 0 0 0 0 0 0 0 0 0 0 0 0 0 0 0 0 4 0 0 2 10 9 11 9 12 10 7 10 8 12 13 12 16 13 12 13 8 4 4 0 0 0 0 0 0 0 0 30 1566 810 563 539 358 1072 1216 735 517 312 250 247 259 225 300 351 271 155 60 39 0 0 0 0 0 0 0
0 0 0 0 0 0 0 0 0 0 0 0 0 0 0 0 0 0 0 0 0 0 0 0 0 0 0 0 2 3 8 7 10 11 10 9 8 8 8 8 10 11 11 13 13 12 12 7 4 2 0 0 0 0 0 0 0 0 1 982 811 591 516 784 609 995 622 512 374 331 305 253 206 290 323 259 156 65 34 0 0 0 0 0 0
0 0 0 0 0 0 0 0 0 0 0 0 0 0 0 0 0 0 0 0 0 0 0 0 0 0 0 0 2 4 8 8 8 7 9 8 8 8 8 8 8 9 10 12 12 12 11 8 4 4 0 0 0 0 0 0 0 0 0 0 1293 564 465 565 604 434 467 558 568 439 368 305 266 226 282 289 228 140 66 33 0 0 0 0 0
0 0 0 0 0 0 0 0 0 0 0 0 0 0 0 0 0 0 0 0 0 0 0 0 0 0 0 0 5 11 12 10 13 9 9 9 7 8 8 8 8 8 8 7 8 10 10 10 7 5 5 1 0 0 0 4 0 0 1 3 176 1033 600 485 635 611 597 797 967 705 425 375 325 269 236 290 287 232 128 57 35 41 0 0 0
0 0 0 0 0 0 0 0 0 0 0 0 0 0 0 0 0 0 0 0 0 0 0 0 0 0 1 6 8 11 12 11 11 12 12 10 9 7 8 10 8 8 10 6 6 7 8 8 9 4 2 6 1 0 0 3 12 3 0 0 5 541 1174 1239 764 541 551 604 762 934 635 455 392 348 273 265 316 271 198 114 68 54 48 18 0
0 0 0 0 0 0 0 0 0 0 0 0 0 0 0 0 0 0 0 0 0 0 0 0 0 0 2 4 9 11 11 12 10 12 12 10 9 8 9 8 6 8 8 6 7 7 7 7 6 6 5 3 8 5 0 0 5 15 8 1 0 0 59 939 803 815 750 636 785 817 772 613 511 460 392 308 286 320 274 186 102 80 80 57 12
0 0 0 0 0 0 0 0 0 0 0 0 0 0 0 0 0 0 0 0 0 0 0 0 0 0 1 2 6 8 6 8 11 10 11 9 6 7 6 8 8 8 7 7 7 7 7 7 6 6 5 6 5 7 8 4 2 9 21 25 31 31 23 287 1141 1354 824 725 736 620 764 680 563 527 485 407 313 294 319 288 208 143 107 89 48
0 0 0 0 0 0 0 0 0 0 0 0 0 0 0 0 0 0 1 0 0 0 0 0 0 0 0 1 4 9 11 10 9 11 3 0 4 5 4 6 9 8 7 7 9 8 9 9 9 10 9 8 7 6 5 7 10 9 4 8 2 0 0 1 145 1029 1347 857 758 864 829 676 558 495 493 428 348 286 294 295 300 241 162 118 102
0 0 0 0 0 0 0 0 0 0 0 0 0 0 0 0 0 0 1 0 2 0 1 0 0 1 0 1 3 8 24 17 7 0 0 0 0 1 4 5 5 4 3 3 3 7 10 10 11 11 10 9 8 8 8 8 11 12 11 13 21 18 12 9 14 94 924 1263 824 522 471 590 526 439 434 394 381 302 193 222 262 253 196 150 139
0 0 0 0 0 0 0 0 0 0 0 0 0 0 0 0 0 0 0 0 0 0 0 0 0 0 0 1 3 8 9 4 6 1 0 0 0 0 0 0 0 0 0 1 3 9 12 12 13 13 12 10 9 9 12 9 9 13 15 14 17 20 18 17 18 30 1445 930 631 544 570 475 454 434 355 360 348 303 198 147 161 272 279 223 171
0 0 0 0 0 0 0 0 0 0 0 0 0 0 0 0 0 0 0 0 0 0 0 0 0 1 0 1 6 6 6 6 0 4 0 0 0 0 0 0 0 0 0 0 7 8 8 12 10 11 12 10 10 11 9 11 11 12 16 17 14 14 12 9 11 17 30 796 539 417 572 514 410 438 406 359 368 318 272 210 179 162 230 258 237
0 0 0 0 1 0 0 0 0 0 0 0 0 0 0 0 0 0 0 0 0 0 0 0 0 1 2 1 3 2 1 7 7 0 0 0 0 0 0 0 0 2 2 1 1 1 10 12 11 11 10 10 13 11 15 17 21 16 14 13 13 13 12 12 8 7 4 125 332 1043 453 695 390 433 465 391 335 342 312 301 208 156 160 219 260
0 0 0 0 0 0 0 0 0 0 0 0 0 0 0 0 0 0 0 0 0 0 0 0 0 1 2 2 3 2 3 3 0 0 0 0 1 2 3 4 5 3 1 0 0 0 3 8 8 8 7 11 12 11 12 8 11 15 14 14 14 11 12 9 7 10 3 4 24 23 236 558 406 496 479 394 293 322 320 305 252 215 172 143 184
0 0 0 0 0 0 0 1 0 0 0 0 0 0 0 0 0 0 0 0 0 0 1 0 0 0 4 2 2 0 0 8 0 0 0 1 1 3 3 2 2 3 3 5 6 5 5 6 7 9 10 10 10 10 11 11 15 19 23 22 19 16 10 9 11 7 5 0 20 34 12 111 644 557 492 426 280 136 246 254 255 228 205 202 163
0 0 0 0 0 0 0 0 0 0 0 0 0 0 0 0 0 0 0 0 0 0 0 0 0 0 0 0 0 0 0 1 0 0 0 0 2 3 2 3 3 3 3 1 1 0 0 2 5 5 4 2 1 0 0 0 0 1 2 6 7 10 8 6 7 2 4 0 11 23 19 134 359 542 491 419 311 166 55 71 212 210 183 173 190
0 0 0 0 0 0 0 1 0 0 0 0 0 0 0 0 0 0 0 0 0 0 0 0 0 0 5 0 0 0 0 0 0 0 0 0 2 2 2 3 3 4 3 2 1 0 0 0 0 0 0 1 0 0 0 0 0 0 0 2 4 6 8 6 5 5 2 0 9 34 104 214 428 522 555 441 439 231 74 48 0 10 71 101 134
0 0 0 0 0 0 0 0 0 0 0 0 0 0 0 0 0 0 0 0 0 0 0 0 0 0 3 0 0 0 0 0 0 0 0 0 0 1 3 2 3 3 2 2 2 2 0 0 0 0 0 0 2 0 0 2 9 7 1 2 4 4 4 4 5 4 2 2 2 30 577 659 750 515 411 410 350 167 110 52 18 0 0 0 55
0 0 0 0 0 0 0 0 0 0 0 0 0 0 0 0 0 0 0 0 0 0 0 0 0 0 0 3 0 0 0 0 0 0 0 0 0 1 3 2 2 2 2 2 1 1 3 2 2 5 2 2 9 11 11 6 5 5 24 29 29 8 4 5 4 4 4 2 0 17 602 505 576 308 423 432 337 145 91 132 10 1 6 3 1
Wind_Speed
8 10 9 6 10 9 11 7 8 8 7 7 7 8 10 12 13 13 16 17 nan nan nan 19 21 22 19 18 17 18 18 17 17 17 20 20 22 29 33 33 30 29 28 25 22 23 23 21 nan nan nan nan nan nan nan nan nan nan nan nan nan nan nan nan nan nan nan nan nan nan nan nan nan nan nan nan nan nan nan 11 10 9 8 8 9
10 11 10 11 11 8 8 7 10 10 9 9 8 8 6 8 9 11 12 17 17 nan nan nan 21 24 24 21 20 19 19 21 20 18 18 20 20 27 34 32 32 30 28 27 23 22 23 24 23 nan nan nan nan nan nan nan nan nan nan nan nan nan nan nan nan nan nan nan nan nan nan nan nan nan nan nan nan nan nan nan nan 7 8 8 10
10 10 12 11 13 11 8 8 7 7 11 13 12 9 12 7 8 9 9 8 10 13 22 nan nan 22 26 27 24 22 20 19 19 20 19 18 18 24 28 34 33 33 30 27 25 23 21 21 23 21 21 16 nan nan nan nan nan nan nan nan nan nan nan nan nan nan nan nan nan nan nan nan nan nan nan nan nan nan nan nan nan 7 9 10 11
8 12 12 11 11 11 12 11 14 13 11 10 12 13 11 15 12 10 12 12 13 14 16 19 19 20 22 26 27 26 24 22 22 21 21 21 21 18 25 28 33 33 32 29 26 24 23 19 20 22 22 19 nan nan nan nan nan nan nan nan nan nan nan nan nan nan nan nan nan nan nan nan nan nan nan nan nan nan nan nan nan 8 10 10 11
11 10 11 11 12 12 13 14 14 14 14 13 10 10 12 15 14 14 11 11 12 15 14 15 17 17 17 19 23 27 25 23 24 23 21 22 23 23 22 27 29 33 32 31 30 27 24 20 17 20 20 19 nan nan nan nan nan nan nan nan nan nan nan nan nan nan nan nan nan nan nan nan nan nan nan nan nan nan nan nan nan nan nan nan 12
12 12 10 12 14 14 16 16 17 17 17 16 15 16 13 12 12 14 16 17 14 14 14 14 18 18 18 20 21 21 24 25 24 23 23 22 22 22 24 23 29 28 26 29 31 31 28 24 19 18 18 23 20 nan nan nan nan nan nan nan nan nan nan nan nan nan nan nan nan nan nan nan nan nan nan nan nan nan nan nan nan nan nan nan 12
13 12 12 12 16 16 16 16 17 17 16 17 12 14 13 13 14 13 14 15 15 19 20 18 18 17 15 15 18 21 22 23 23 23 23 23 19 22 25 25 27 32 27 26 30 33 32 28 25 21 16 17 nan nan nan nan nan nan nan nan nan nan nan nan nan nan nan nan nan nan nan nan nan nan nan nan nan nan nan nan nan nan nan nan nan
13 14 13 13 15 16 17 17 16 15 15 15 14 14 14 12 14 14 13 13 14 17 22 20 21 18 16 16 17 17 19 17 20 22 25 25 24 24 25 26 27 27 34 27 26 33 35 31 27 24 22 16 16 nan nan nan nan 14 nan nan nan nan nan nan nan nan nan nan nan nan nan nan nan nan nan nan nan nan nan nan nan nan nan nan nan
15 15 14 15 16 16 17 17 15 15 15 15 14 14 13 12 14 13 14 13 12 12 14 18 19 19 19 20 20 20 22 19 18 21 18 21 24 23 20 22 25 25 24 29 31 28 35 32 30 27 24 20 16 16 13 nan nan 16 nan nan nan nan nan nan nan nan nan nan nan nan nan nan nan nan nan nan nan nan nan nan nan nan nan nan nan
17 17 17 16 17 17 17 17 16 15 15 15 15 15 15 14 13 14 14 13 13 13 13 15 17 19 18 18 21 22 24 22 19 16 22 20 20 23 23 23 23 23 24 23 26 30 27 33 32 29 26 22 19 16 nan 12 nan 18 20 20 nan nan nan nan nan nan nan nan nan nan nan nan nan nan nan nan nan nan nan nan nan nan nan nan nan
19 19 19 18 19 19 17 17 16 15 16 15 17 18 17 15 13 14 15 15 15 15 15 15 16 17 17 17 19 20 21 21 20 20 18 18 18 15 20 18 22 23 24 23 24 23 29 31 31 28 25 25 23 20 17 nan 16 19 21 21 19 nan nan nan nan nan nan nan nan nan nan nan nan nan nan nan nan nan nan nan nan nan nan nan nan
21 21 19 19 18 19 19 18 17 17 17 16 16 15 15 15 15 15 15 16 17 18 17 17 16 16 17 18 20 20 22 23 20 20 21 21 22 19 17 19 20 22 22 23 22 23 25 31 31 30 26 28 28 24 22 20 19 18 17 17 18 17 nan nan nan nan nan nan nan nan nan nan nan nan nan nan nan nan nan nan nan nan nan nan nan
21 21 20 19 19 19 19 19 18 18 18 17 16 16 16 16 16 17 16 17 19 20 20 19 18 18 21 20 20 22 23 22 21 22 21 21 21 21 24 21 20 23 21 22 22 22 23 27 30 29 28 27 31 30 23 22 19 17 15 14 14 16 17 nan nan nan nan nan nan nan nan nan nan nan nan nan nan nan nan nan nan nan nan nan nan
21 21 20 19 19 19 18 20 18 20 19 19 18 16 15 18 19 18 19 18 19 20 20 20 20 19 17 18 18 21 22 24 23 23 19 19 19 20 22 20 17 17 19 18 20 21 22 24 25 28 28 28 30 29 24 21 18 15 15 13 12 13 15 16 nan nan nan nan nan nan nan nan nan nan nan nan nan nan nan nan nan nan nan nan nan
22 22 21 19 19 19 20 18 20 19 19 20 21 20 18 18 19 20 19 21 21 22 22 23 20 19 18 18 20 19 27 28 25 26 26 25 24 22 21 22 21 18 18 18 18 20 22 22 24 25 28 31 30 27 23 21 17 15 15 15 15 14 14 16 15 14 nan nan nan nan nan nan nan nan nan nan nan nan nan nan nan nan nan nan nan
22 21 22 21 19 18 19 20 19 19 19 20 20 22 22 21 22 21 21 20 22 23 25 23 23 22 21 21 18 20 20 28 24 25 27 27 26 23 23 23 22 22 22 19 18 20 21 22 24 25 25 28 28 27 23 18 16 17 18 18 19 18 14 15 15 14 13 nan nan nan nan nan nan nan nan nan nan nan nan nan nan nan nan nan nan
22 22 21 22 22 20 19 18 18 18 19 21 22 22 22 23 23 23 22 23 21 22 24 26 24 26 23 23 23 23 22 20 20 20 24 28 27 26 25 22 21 22 22 20 20 21 22 22 23 23 25 25 27 27 24 19 19 19 20 20 21 19 15 13 15 16 12 11 nan nan nan nan nan nan nan nan nan nan nan nan nan nan nan nan nan
22 21 21 21 21 21 21 19 20 20 20 21 22 23 24 24 24 23 22 23 23 22 23 26 27 25 25 26 26 23 21 20 20 21 21 22 23 25 28 30 25 25 24 21 20 16 22 25 24 24 24 24 26 26 25 23 21 19 20 23 nan nan 17 16 15 15 14 nan 10 nan nan nan nan nan nan nan nan nan nan nan nan nan nan nan nan
22 21 21 21 21 22 22 23 22 23 22 22 22 23 24 25 24 25 25 25 25 24 24 25 26 28 28 26 25 25 23 23 23 20 18 22 25 23 23 28 30 30 28 25 24 24 23 21 23 24 24 25 23 25 26 24 24 20 20 22 nan nan nan nan 18 15 14 13 11 11 nan 17 nan nan nan nan nan nan nan nan nan nan nan nan nan
22 21 21 24 24 23 23 24 23 23 23 25 25 24 23 24 25 24 25 27 26 27 26 26 26 27 27 26 26 26 26 25 24 22 20 18 19 24 25 24 24 25 26 26 26 24 23 24 23 22 25 25 26 25 25 25 25 22 22 21 23 25 nan nan nan 17 14 14 12 10 12 nan nan nan nan nan nan nan nan nan nan nan nan nan nan
nan nan 23 24 nan 24 nan nan nan nan nan nan nan nan nan 24 25 26 26 26 27 28 27 27 27 27 27 27 26 26 25 25 25 25 23 21 20 22 23 24 24 25 28 27 26 27 26 24 23 28 27 24 22 25 27 25 26 27 25 23 nan nan 26 nan nan nan 18 16 13 13 11 nan nan nan nan nan nan nan nan nan nan nan nan nan nan
nan nan nan nan nan nan nan nan nan nan nan nan nan nan nan nan nan nan nan 27 29 29 28 28 28 27 27 26 27 27 27 27 27 26 24 24 22 21 23 21 21 25 28 28 28 28 28 28 27 25 25 26 26 26 28 26 25 25 26 25 28 29 nan nan nan nan nan nan 19 16 11 12 nan nan nan nan nan nan nan nan nan nan nan nan nan
nan nan nan nan nan nan nan nan nan nan nan nan nan nan nan nan nan nan nan nan nan nan 30 30 31 29 28 28 28 27 28 26 26 26 26 26 24 23 23 23 22 22 26 24 24 26 28 28 28 27 27 27 25 24 28 29 27 26 27 29 28 31 30 28 26 nan nan nan nan 19 15 13 15 nan nan nan nan nan nan nan nan nan nan nan nan
nan nan nan nan nan nan nan nan nan nan nan nan nan nan nan nan nan nan nan nan nan nan nan nan nan nan nan nan nan nan 28 28 28 27 27 26 26 23 24 25 24 24 26 25 23 23 25 28 30 29 28 27 27 27 26 26 26 26 29 29 29 29 30 29 29 27 nan nan nan nan 18 16 17 15 nan nan nan nan nan nan nan nan nan nan nan
nan nan nan nan nan nan nan nan nan nan nan nan nan nan nan nan nan nan nan nan nan nan nan nan nan nan nan nan nan nan nan nan nan nan 29 29 28 26 25 27 25 24 25 26 27 27 26 25 28 33 32 30 26 25 27 31 26 30 33 30 31 30 29 29 29 29 28 nan nan nan 22 19 17 14 nan nan nan nan nan nan nan nan nan nan nan
nan nan nan nan nan nan nan nan nan nan nan nan nan nan nan nan nan nan nan nan nan nan nan nan nan nan nan nan nan nan nan nan nan nan nan nan nan nan 29 28 26 24 26 26 26 25 28 29 27 31 33 33 29 24 28 31 27 30 35 30 32 30 29 28 28 29 28 28 nan nan nan 22 21 19 18 nan nan nan nan nan nan nan nan nan nan
nan nan nan nan nan nan nan nan nan nan nan nan nan nan nan nan nan nan nan nan nan nan nan nan nan nan nan nan nan nan nan nan nan nan nan nan nan nan nan nan nan nan 27 27 27 25 26 28 28 28 29 29 28 29 32 30 27 28 36 31 28 31 27 27 27 27 28 29 29 nan nan nan 23 21 21 nan nan nan nan nan nan nan nan nan nan
nan nan nan nan nan nan nan nan nan nan nan nan nan nan nan nan nan nan nan nan nan nan nan nan nan nan nan nan nan nan nan nan nan nan nan nan nan nan nan nan nan nan nan nan nan 27 28 28 28 28 30 33 31 31 26 26 30 31 34 30 27 28 30 27 26 27 28 30 28 27 nan nan nan 25 23 nan nan nan nan nan nan nan nan nan nan
nan nan nan nan nan nan nan nan nan nan nan nan nan nan nan nan nan nan nan nan nan nan nan nan nan nan nan nan nan nan nan nan nan nan nan nan nan nan nan nan nan nan nan nan nan nan nan 31 30 29 28 32 38 34 27 24 23 28 32 28 26 25 31 29 27 26 28 31 29 27 27 nan nan nan nan 23 nan nan nan nan nan nan nan nan nan
nan nan nan nan nan nan nan nan nan nan nan nan nan nan nan nan nan nan nan nan nan nan nan nan nan nan nan nan nan nan nan nan nan nan nan nan nan nan nan nan nan nan nan nan nan nan nan nan nan 31 31 32 32 35 36 30 24 26 22 24 24 24 30 33 29 27 27 28 29 28 27 27 nan nan nan 24 nan nan nan nan nan nan nan nan nan
nan nan nan nan nan nan nan nan nan nan nan nan nan nan nan nan nan nan nan nan nan nan nan nan nan nan nan nan nan nan nan nan nan nan nan nan nan nan nan nan nan nan nan nan nan nan nan nan nan nan nan nan nan 31 35 36 31 32 27 22 23 23 29 30 30 29 27 27 28 28 29 29 nan nan nan nan 25 nan nan nan nan nan nan nan nan
nan nan nan nan nan nan nan nan nan nan nan nan nan nan nan nan nan nan nan nan nan nan nan nan nan nan nan nan nan nan nan nan nan nan nan nan nan nan nan nan nan nan nan nan nan nan nan nan nan nan nan nan nan nan nan 31 36 40 33 28 22 22 28 26 29 29 29 27 26 26 27 29 29 28 nan nan nan nan nan nan nan nan nan nan nan
nan nan nan nan nan nan nan nan nan nan nan nan nan nan nan nan nan nan nan nan nan nan nan nan nan nan nan nan nan nan nan nan nan nan nan nan nan nan nan nan nan nan nan nan nan nan nan nan nan nan nan nan nan nan nan nan nan 36 36 31 27 25 24 23 26 30 29 29 27 26 25 26 29 30 29 nan nan nan nan nan nan nan nan nan nan
nan nan nan nan nan nan nan nan nan nan nan nan nan nan nan nan nan nan nan nan nan nan nan nan nan nan nan nan nan nan nan nan nan nan nan nan nan nan nan nan nan nan nan nan nan nan nan nan nan nan nan nan nan nan nan nan nan nan 39 37 32 27 26 24 25 29 31 30 29 28 27 25 26 29 31 31 nan nan nan nan nan nan nan nan nan
nan nan nan nan nan nan nan nan nan nan nan nan nan nan nan nan nan nan nan nan nan nan nan nan nan nan nan nan nan nan nan nan nan nan nan nan nan nan nan nan nan nan nan nan nan nan nan nan nan nan nan nan nan nan nan nan nan nan nan 35 35 34 28 30 28 26 34 31 31 30 29 27 26 28 30 31 31 nan nan nan nan nan nan nan nan
nan nan nan nan nan nan nan nan nan nan nan nan nan nan nan nan nan nan nan nan nan nan nan nan nan nan nan nan nan nan nan nan nan nan nan nan nan nan nan nan nan nan nan nan nan nan nan nan nan nan nan nan nan nan nan nan nan nan nan nan 38 34 34 34 31 25 28 33 32 31 29 28 27 28 29 29 30 31 nan nan nan nan nan nan nan
nan nan nan nan nan nan nan nan nan nan nan nan nan nan nan nan nan nan nan nan nan nan nan nan nan nan nan nan nan nan nan nan nan nan nan nan nan nan nan nan nan nan nan nan nan nan nan nan nan nan nan nan nan nan nan nan nan nan nan nan 36 38 36 35 36 31 31 32 34 32 31 29 28 28 29 29 29 29 29 nan nan nan nan nan nan
nan nan nan nan nan nan nan nan nan nan nan nan nan nan nan nan nan nan nan nan nan nan nan nan nan nan nan nan nan nan nan nan nan nan nan nan nan nan nan nan nan nan nan nan nan nan nan nan nan nan nan nan nan nan nan nan nan nan nan nan nan 37 38 42 38 36 32 35 32 33 32 31 29 28 28 28 27 27 28 30 nan nan nan nan nan
nan nan nan nan nan nan nan nan nan nan nan nan nan nan nan nan nan nan nan nan nan nan nan nan nan nan nan nan nan nan nan nan nan nan nan nan nan nan nan nan nan nan nan nan nan nan nan nan nan nan nan nan nan nan nan nan nan nan nan nan nan nan nan 39 39 39 36 36 32 33 36 35 31 30 29 28 26 26 28 29 30 nan nan nan nan
nan nan nan nan nan nan nan nan nan nan nan nan nan nan nan nan nan nan nan nan nan nan nan nan nan nan nan nan nan nan nan nan nan nan nan nan nan nan nan nan nan nan nan nan nan nan nan nan nan nan nan nan nan nan nan nan nan nan nan nan nan nan nan 41 38 40 40 37 37 36 35 35 33 31 30 29 26 27 28 29 28 31 30 nan nan
nan nan nan nan nan nan nan nan nan nan nan nan nan nan nan nan nan nan nan nan nan nan nan nan nan nan nan nan nan nan nan nan nan nan nan nan nan nan nan nan nan nan nan nan nan nan nan nan nan nan nan nan nan nan nan nan nan nan nan nan nan nan nan nan 39 37 40 40 41 39 37 37 34 34 35 35 31 29 30 28 31 29 30 30 32
nan nan nan nan nan nan nan nan nan nan nan nan nan nan nan nan nan nan nan nan nan nan nan nan nan nan nan nan nan nan nan nan nan nan nan nan nan nan nan nan nan nan nan nan nan nan nan nan nan nan nan nan nan nan nan nan nan nan nan nan nan nan nan nan nan nan 42 43 42 38 37 39 38 36 35 32 34 34 32 35 34 34 32 29 31
nan nan nan nan nan nan nan nan nan nan nan nan nan nan nan nan nan nan nan nan nan nan nan nan nan nan nan nan nan nan nan nan nan nan nan nan nan nan nan nan nan nan nan nan nan nan nan nan nan nan nan nan nan nan nan nan nan nan nan nan nan nan nan nan nan nan 45 47 42 40 35 40 41 38 36 34 34 36 34 31 27 28 30 32 32
nan nan nan nan nan nan nan nan nan nan nan nan nan nan nan nan nan nan nan nan nan nan nan nan nan nan nan nan nan nan nan nan nan nan nan nan nan nan nan nan nan nan nan nan nan nan nan nan nan nan nan nan nan nan nan nan nan nan nan nan nan nan nan nan nan nan nan 45 41 40 35 42 42 39 38 35 33 32 34 32 29 25 26 30 32
nan nan nan nan nan nan nan nan nan nan nan nan nan nan nan nan nan nan nan nan nan nan nan nan nan nan nan nan nan nan nan nan nan nan nan nan nan nan nan nan nan nan nan nan nan nan nan nan nan nan nan nan nan nan nan nan nan nan nan nan nan nan nan nan nan nan nan 47 46 41 37 42 45 41 36 34 32 31 32 32 32 29 26 27 31
nan nan nan nan nan nan nan nan nan nan nan nan nan nan nan nan nan nan nan nan nan nan nan nan nan nan nan nan nan nan nan nan nan nan nan nan nan nan nan nan nan nan nan nan nan nan nan nan nan nan nan nan nan nan nan nan nan nan nan nan nan nan nan nan nan nan nan nan nan nan 43 42 44 42 36 31 33 33 34 33 33 32 30 28 29
nan nan nan nan nan nan nan nan nan nan nan nan nan nan nan nan nan nan nan nan nan nan nan nan nan nan nan nan nan nan nan nan nan nan nan nan nan nan nan nan nan nan nan nan nan nan nan nan nan nan nan nan nan nan nan nan nan nan nan nan nan nan nan nan nan nan nan nan nan nan nan 39 40 37 35 32 34 35 34 33 34 33 32 30 28
nan nan nan nan nan nan nan nan nan nan nan nan nan nan nan nan nan nan nan nan nan nan nan nan nan nan nan nan nan nan nan nan nan nan nan nan nan nan nan nan nan nan nan nan nan nan nan nan nan nan nan nan nan nan nan nan nan nan nan nan nan nan nan nan nan nan nan nan nan nan nan 39 41 38 35 34 35 34 nan nan 35 35 33 31 29
nan nan nan nan nan nan nan nan nan nan nan nan nan nan nan nan nan nan nan nan nan nan nan nan nan nan nan nan nan nan nan nan nan nan nan nan nan nan nan nan nan nan nan nan nan nan nan nan nan nan nan nan nan nan nan nan nan nan nan nan nan nan nan nan nan nan nan nan nan nan 43 39 41 41 39 37 37 37 nan nan nan nan nan 31 30
nan nan nan nan nan nan nan nan nan nan nan nan nan nan nan nan nan nan nan nan nan nan nan nan nan nan nan nan nan nan nan nan nan nan nan nan nan nan nan nan nan nan nan nan nan nan nan nan nan nan nan nan nan nan nan nan nan nan nan nan nan nan nan nan nan nan nan nan nan nan 46 44 46 45 39 39 41 39 37 nan nan nan nan nan nan
nan nan nan nan nan nan nan nan nan nan nan nan nan nan nan nan nan nan nan nan nan nan nan nan nan nan nan nan nan nan nan nan nan nan nan nan nan nan nan nan nan nan nan nan nan nan nan nan nan nan nan nan nan nan nan nan nan nan nan nan nan nan nan nan nan nan nan nan nan nan 45 46 42 43 39 45 42 43 nan 38 nan nan nan nan nan
Wind_Direction
295 289 276 270 275 275 282 283 292 305 292 287 309 322 328 335 332 341 341 341 nan nan nan 349 341 337 343 341 341 339 340 337 337 342 343 342 341 335 333 332 331 330 330 331 330 327 326 326 nan nan nan nan nan nan nan nan nan nan nan nan nan nan nan nan nan nan nan nan nan nan nan nan nan nan nan nan nan nan nan 286 278 274 271 276 277
303 295 299 310 297 297 291 302 320 314 312 316 331 313 308 306 331 327 347 340 340 nan nan nan 346 339 337 338 338 341 338 340 341 343 344 341 343 329 338 333 334 334 333 332 332 330 330 328 327 nan nan nan nan nan nan nan nan nan nan nan nan nan nan nan nan nan nan nan nan nan nan nan nan nan nan nan nan nan nan nan nan 277 276 275 276
303 300 308 316 318 317 320 327 308 319 330 334 324 329 304 316 307 336 322 320 312 334 333 nan nan 342 338 338 338 337 338 337 332 335 340 338 334 329 333 335 337 337 334 333 333 335 333 325 328 325 325 322 nan nan nan nan nan nan nan nan nan nan nan nan nan nan nan nan nan nan nan nan nan nan nan nan nan nan nan nan nan 292 284 282 282
310 319 318 313 310 321 319 325 320 332 326 314 326 321 330 324 323 328 334 340 336 333 328 330 335 337 339 337 334 334 335 334 335 336 336 335 334 332 327 330 336 338 336 334 336 336 332 333 323 328 328 325 nan nan nan nan nan nan nan nan nan nan nan nan nan nan nan nan nan nan nan nan nan nan nan nan nan nan nan nan nan 306 297 292 293
318 311 310 316 302 302 307 305 311 313 315 318 320 321 332 333 336 330 317 332 332 328 328 331 329 329 330 333 330 330 330 330 332 334 332 332 333 333 330 331 332 337 337 336 336 337 334 327 325 325 328 325 nan nan nan nan nan nan nan nan nan nan nan nan nan nan nan nan nan nan nan nan nan nan nan nan nan nan nan nan nan nan nan nan 305
313 312 311 304 305 300 297 304 303 303 305 310 321 322 327 326 322 324 330 324 329 321 321 318 328 322 324 332 331 326 321 328 328 330 332 333 330 330 327 327 318 318 327 336 335 337 335 331 326 323 330 329 327 nan nan nan nan nan nan nan nan nan nan nan nan nan nan nan nan nan nan nan nan nan nan nan nan nan nan nan nan nan nan nan 308
309 311 310 308 308 311 305 306 304 303 306 305 303 307 314 324 319 320 322 325 325 324 313 327 306 314 319 314 321 325 324 327 327 328 331 331 328 331 328 327 326 319 328 325 330 339 338 337 334 325 322 316 nan nan nan nan nan nan nan nan nan nan nan nan nan nan nan nan nan nan nan nan nan nan nan nan nan nan nan nan nan nan nan nan nan
303 307 312 315 311 314 315 306 310 311 306 300 308 305 307 310 312 314 314 319 325 327 323 309 310 318 315 315 308 311 308 312 325 325 329 330 331 333 330 328 329 328 324 322 321 325 336 337 336 328 319 317 318 nan nan nan nan 345 nan nan nan nan nan nan nan nan nan nan nan nan nan nan nan nan nan nan nan nan nan nan nan nan nan nan nan
301 304 308 313 315 320 315 312 317 312 306 306 304 295 299 305 303 309 308 313 318 319 319 321 317 313 315 315 316 309 303 317 318 316 311 326 328 328 322 329 326 328 326 320 318 314 325 334 332 331 325 314 301 314 324 nan nan 344 nan nan nan nan nan nan nan nan nan nan nan nan nan nan nan nan nan nan nan nan nan nan nan nan nan nan nan
295 298 304 310 312 315 315 316 315 311 309 308 305 302 303 305 309 308 311 314 318 318 313 314 314 317 321 322 317 314 316 314 316 317 314 320 324 323 326 324 324 326 323 323 316 315 312 322 328 329 330 321 303 294 nan 315 nan 332 337 334 nan nan nan nan nan nan nan nan nan nan nan nan nan nan nan nan nan nan nan nan nan nan nan nan nan
288 291 297 302 308 312 314 312 313 314 311 311 311 311 307 309 310 310 314 318 317 317 318 318 320 322 322 324 320 323 315 317 317 316 316 304 297 313 310 315 323 326 324 322 318 315 309 308 313 315 319 328 314 289 288 nan 304 321 334 334 331 nan nan nan nan nan nan nan nan nan nan nan nan nan nan nan nan nan nan nan nan nan nan nan nan
284 286 292 296 300 306 306 311 312 313 310 303 297 302 308 312 313 313 316 320 322 323 323 321 320 323 330 331 334 331 329 324 322 321 312 317 323 321 316 316 323 328 329 323 319 316 313 310 308 310 311 319 326 307 284 281 288 303 328 331 331 330 nan nan nan nan nan nan nan nan nan nan nan nan nan nan nan nan nan nan nan nan nan nan nan
283 286 288 292 295 298 303 306 306 305 299 306 311 311 311 313 314 316 319 321 323 324 323 324 325 327 330 334 332 332 329 324 330 325 326 321 319 318 321 318 326 327 327 322 321 319 317 313 311 309 308 303 316 322 296 275 280 296 318 325 328 334 329 nan nan nan nan nan nan nan nan nan nan nan nan nan nan nan nan nan nan nan nan nan nan
281 282 285 289 291 294 292 292 292 297 305 303 306 310 309 315 315 318 317 322 323 323 321 322 325 321 320 320 323 322 320 327 328 325 321 321 319 320 313 309 310 320 317 318 320 321 318 317 315 312 311 307 304 308 294 274 279 295 307 316 321 328 328 327 nan nan nan nan nan nan nan nan nan nan nan nan nan nan nan nan nan nan nan nan nan
279 279 282 284 288 290 290 296 296 299 307 305 304 308 311 311 317 315 314 320 322 320 321 320 318 317 320 323 321 315 316 322 323 326 329 329 325 324 322 321 322 312 313 314 316 319 320 319 316 312 308 303 301 310 300 279 278 296 308 313 314 320 325 325 327 328 nan nan nan nan nan nan nan nan nan nan nan nan nan nan nan nan nan nan nan
274 278 283 282 283 287 290 293 297 300 301 303 303 304 310 312 309 311 316 313 314 311 314 316 315 313 315 311 314 317 312 311 314 317 325 328 325 327 327 319 312 315 317 322 316 316 318 317 320 316 314 310 307 313 307 286 292 293 303 312 308 312 320 322 323 325 332 nan nan nan nan nan nan nan nan nan nan nan nan nan nan nan nan nan nan
274 274 275 276 278 281 284 290 291 293 296 298 297 295 295 299 301 302 302 303 303 305 307 311 313 315 315 312 312 313 307 304 298 312 310 316 324 327 323 322 320 315 307 316 322 322 320 318 318 317 316 317 312 310 310 300 288 286 283 296 306 307 310 317 322 325 314 321 nan nan nan nan nan nan nan nan nan nan nan nan nan nan nan nan nan
269 271 273 274 274 275 278 281 284 285 284 287 288 288 286 284 285 288 290 293 297 299 302 304 308 310 312 314 312 310 306 301 300 305 306 312 310 316 323 324 321 319 314 317 311 318 320 319 318 320 318 315 313 309 307 309 309 297 288 285 nan nan 307 311 317 311 319 nan 320 nan nan nan nan nan nan nan nan nan nan nan nan nan nan nan nan
271 269 268 269 272 272 275 277 279 282 283 284 283 283 285 283 283 284 284 287 287 294 295 296 299 305 306 307 309 310 309 305 302 297 301 301 305 305 308 317 319 322 326 327 326 327 323 312 316 322 320 316 316 314 310 311 317 317 313 299 nan nan nan nan 305 307 307 310 304 316 nan 304 nan nan nan nan nan nan nan nan nan nan nan nan nan
274 274 277 275 277 278 276 277 278 279 282 282 279 279 281 285 285 283 283 284 282 285 285 290 292 295 293 296 299 305 309 312 310 304 300 298 297 301 305 302 299 309 318 325 327 324 321 324 322 322 314 319 319 318 317 316 307 306 306 310 297 302 nan nan nan 291 287 298 303 309 320 nan nan nan nan nan nan nan nan nan nan nan nan nan nan
nan nan 278 279 nan 283 nan nan nan nan nan nan nan nan nan 280 282 282 281 282 284 283 284 284 285 287 286 286 287 292 294 299 301 303 301 297 297 296 294 295 302 305 312 316 321 320 322 321 324 319 319 317 313 317 319 314 305 300 302 310 nan nan 308 nan nan nan 278 277 292 292 302 nan nan nan nan nan nan nan nan nan nan nan nan nan nan
nan nan nan nan nan nan nan nan nan nan nan nan nan nan nan nan nan nan nan 280 284 283 283 285 284 282 282 283 284 283 285 286 290 291 294 298 296 290 289 287 291 294 303 312 319 321 322 321 319 318 317 317 319 320 316 316 309 307 306 311 308 307 nan nan nan nan nan nan 278 281 284 310 nan nan nan nan nan nan nan nan nan nan nan nan nan
nan nan nan nan nan nan nan nan nan nan nan nan nan nan nan nan nan nan nan nan nan nan 281 281 281 282 281 281 281 281 281 281 281 280 282 284 281 284 284 286 287 288 293 297 304 312 312 315 321 320 318 320 318 312 312 316 316 313 315 311 306 304 308 311 301 nan nan nan nan 276 283 291 294 nan nan nan nan nan nan nan nan nan nan nan nan
nan nan nan nan nan nan nan nan nan nan nan nan nan nan nan nan nan nan nan nan nan nan nan nan nan nan nan nan nan nan 282 281 277 278 277 276 279 279 281 278 279 285 286 288 293 296 307 312 317 317 315 317 318 313 310 309 310 320 313 312 311 310 308 312 312 298 nan nan nan nan 270 277 285 284 nan nan nan nan nan nan nan nan nan nan nan
nan nan nan nan nan nan nan nan nan nan nan nan nan nan nan nan nan nan nan nan nan nan nan nan nan nan nan nan nan nan nan nan nan nan 274 274 275 275 275 274 275 275 278 281 286 292 298 301 306 314 316 312 313 315 318 315 310 318 323 314 314 309 310 310 312 309 295 nan nan nan 270 272 279 282 nan nan nan nan nan nan nan nan nan nan nan
nan nan nan nan nan nan nan nan nan nan nan nan nan nan nan nan nan nan nan nan nan nan nan nan nan nan nan nan nan nan nan nan nan nan nan nan nan nan 269 271 273 275 276 278 280 283 287 291 294 297 301 303 308 314 316 312 316 310 322 318 313 314 308 305 306 310 306 290 nan nan nan 270 273 278 285 nan nan nan nan nan nan nan nan nan nan
nan nan nan nan nan nan nan nan nan nan nan nan nan nan nan nan nan nan nan nan nan nan nan nan nan nan nan nan nan nan nan nan nan nan nan nan nan nan nan nan nan nan 273 274 275 279 279 281 286 293 295 299 306 313 313 307 302 313 318 314 311 315 313 311 306 308 309 296 282 nan nan nan 269 273 268 nan nan nan nan nan nan nan nan nan nan
nan nan nan nan nan nan nan nan nan nan nan nan nan nan nan nan nan nan nan nan nan nan nan nan nan nan nan nan nan nan nan nan nan nan nan nan nan nan nan nan nan nan nan nan nan 276 272 273 273 274 280 286 287 281 276 298 307 317 311 310 313 310 315 313 310 309 309 302 290 280 nan nan nan 271 275 nan nan nan nan nan nan nan nan nan nan
nan nan nan nan nan nan nan nan nan nan nan nan nan nan nan nan nan nan nan nan nan nan nan nan nan nan nan nan nan nan nan nan nan nan nan nan nan nan nan nan nan nan nan nan nan nan nan 270 271 272 268 278 281 282 284 285 297 301 302 307 310 310 311 316 309 305 304 303 296 285 280 nan nan nan nan 277 nan nan nan nan nan nan nan nan nan
nan nan nan nan nan nan nan nan nan nan nan nan nan nan nan nan nan nan nan nan nan nan nan nan nan nan nan nan nan nan nan nan nan nan nan nan nan nan nan nan nan nan nan nan nan nan nan nan nan 270 267 264 265 281 286 288 276 277 288 306 308 310 311 315 312 306 304 303 299 290 284 278 nan nan nan 276 nan nan nan nan nan nan nan nan nan
nan nan nan nan nan nan nan nan nan nan nan nan nan nan nan nan nan nan nan nan nan nan nan nan nan nan nan nan nan nan nan nan nan nan nan nan nan nan nan nan nan nan nan nan nan nan nan nan nan nan nan nan nan 265 275 282 286 292 294 296 307 311 308 308 314 310 303 302 300 295 286 282 nan nan nan nan 281 nan nan nan nan nan nan nan nan
nan nan nan nan nan nan nan nan nan nan nan nan nan nan nan nan nan nan nan nan nan nan nan nan nan nan nan nan nan nan nan nan nan nan nan nan nan nan nan nan nan nan nan nan nan nan nan nan nan nan nan nan nan nan nan 268 281 293 291 292 294 298 297 297 308 311 305 298 298 297 295 288 283 281 nan nan nan nan nan nan nan nan nan nan nan
nan nan nan nan nan nan nan nan nan nan nan nan nan nan nan nan nan nan nan nan nan nan nan nan nan nan nan nan nan nan nan nan nan nan nan nan nan nan nan nan nan nan nan nan nan nan nan nan nan nan nan nan nan nan nan nan nan 274 284 283 286 288 291 295 293 307 308 301 295 294 293 289 286 285 284 nan nan nan nan nan nan nan nan nan nan
nan nan nan nan nan nan nan nan nan nan nan nan nan nan nan nan nan nan nan nan nan nan nan nan nan nan nan nan nan nan nan nan nan nan nan nan nan nan nan nan nan nan nan nan nan nan nan nan nan nan nan nan nan nan nan nan nan nan 275 278 276 272 269 278 287 286 309 304 299 292 291 290 286 287 287 287 nan nan nan nan nan nan nan nan nan
nan nan nan nan nan nan nan nan nan nan nan nan nan nan nan nan nan nan nan nan nan nan nan nan nan nan nan nan nan nan nan nan nan nan nan nan nan nan nan nan nan nan nan nan nan nan nan nan nan nan nan nan nan nan nan nan nan nan nan 270 272 273 270 273 276 276 296 306 301 295 291 290 287 284 285 286 285 nan nan nan nan nan nan nan nan
nan nan nan nan nan nan nan nan nan nan nan nan nan nan nan nan nan nan nan nan nan nan nan nan nan nan nan nan nan nan nan nan nan nan nan nan nan nan nan nan nan nan nan nan nan nan nan nan nan nan nan nan nan nan nan nan nan nan nan nan 269 269 269 272 276 279 288 304 303 299 293 288 287 285 283 281 280 281 nan nan nan nan nan nan nan
nan nan nan nan nan nan nan nan nan nan nan nan nan nan nan nan nan nan nan nan nan nan nan nan nan nan nan nan nan nan nan nan nan nan nan nan nan nan nan nan nan nan nan nan nan nan nan nan nan nan nan nan nan nan nan nan nan nan nan nan 258 265 266 268 268 264 264 300 299 301 296 290 285 282 283 282 278 276 279 nan nan nan nan nan nan
nan nan nan nan nan nan nan nan nan nan nan nan nan nan nan nan nan nan nan nan nan nan nan nan nan nan nan nan nan nan nan nan nan nan nan nan nan nan nan nan nan nan nan nan nan nan nan nan nan nan nan nan nan nan nan nan nan nan nan nan nan 254 259 263 264 265 264 266 264 277 287 286 285 282 281 282 280 276 276 278 nan nan nan nan nan
nan nan nan nan nan nan nan nan nan nan nan nan nan nan nan nan nan nan nan nan nan nan nan nan nan nan nan nan nan nan nan nan nan nan nan nan nan nan nan nan nan nan nan nan nan nan nan nan nan nan nan nan nan nan nan nan nan nan nan nan nan nan nan 258 260 264 265 264 268 281 283 283 283 274 275 280 281 276 270 273 277 nan nan nan nan
nan nan nan nan nan nan nan nan nan nan nan nan nan nan nan nan nan nan nan nan nan nan nan nan nan nan nan nan nan nan nan nan nan nan nan nan nan nan nan nan nan nan nan nan nan nan nan nan nan nan nan nan nan nan nan nan nan nan nan nan nan nan nan 247 255 261 264 266 266 269 273 278 278 283 281 279 281 276 271 268 274 276 279 nan nan
nan nan nan nan nan nan nan nan nan nan nan nan nan nan nan nan nan nan nan nan nan nan nan nan nan nan nan nan nan nan nan nan nan nan nan nan nan nan nan nan nan nan nan nan nan nan nan nan nan nan nan nan nan nan nan nan nan nan nan nan nan nan nan nan 245 254 259 262 262 265 268 272 274 273 270 265 266 271 263 266 259 270 274 275 276
nan nan nan nan nan nan nan nan nan nan nan nan nan nan nan nan nan nan nan nan nan nan nan nan nan nan nan nan nan nan nan nan nan nan nan nan nan nan nan nan nan nan nan nan nan nan nan nan nan nan nan nan nan nan nan nan nan nan nan nan nan nan nan nan nan nan 255 262 263 265 266 268 273 274 275 273 267 272 261 255 251 255 263 272 274
nan nan nan nan nan nan nan nan nan nan nan nan nan nan nan nan nan nan nan nan nan nan nan nan nan nan nan nan nan nan nan nan nan nan nan nan nan nan nan nan nan nan nan nan nan nan nan nan nan nan nan nan nan nan nan nan nan nan nan nan nan nan nan nan nan nan 250 259 260 259 257 264 270 272 275 275 274 271 267 263 268 262 264 268 271
nan nan nan nan nan nan nan nan nan nan nan nan nan nan nan nan nan nan nan nan nan nan nan nan nan nan nan nan nan nan nan nan nan nan nan nan nan nan nan nan nan nan nan nan nan nan nan nan nan nan nan nan nan nan nan nan nan nan nan nan nan nan nan nan nan nan nan 248 254 256 257 259 264 268 267 271 276 277 276 273 275 276 267 266 269
nan nan nan nan nan nan nan nan nan nan nan nan nan nan nan nan nan nan nan nan nan nan nan nan nan nan nan nan nan nan nan nan nan nan nan nan nan nan nan nan nan nan nan nan nan nan nan nan nan nan nan nan nan nan nan nan nan nan nan nan nan nan nan nan nan nan nan 234 237 250 256 257 262 263 265 267 273 278 280 282 282 277 275 273 272
nan nan nan nan nan nan nan nan nan nan nan nan nan nan nan nan nan nan nan nan nan nan nan nan nan nan nan nan nan nan nan nan nan nan nan nan nan nan nan nan nan nan nan nan nan nan nan nan nan nan nan nan nan nan nan nan nan nan nan nan nan nan nan nan nan nan nan nan nan nan 237 249 257 259 262 265 269 275 274 284 288 281 279 278 273
nan nan nan nan nan nan nan nan nan nan nan nan nan nan nan nan nan nan nan nan nan nan nan nan nan nan nan nan nan nan nan nan nan nan nan nan nan nan nan nan nan nan nan nan nan nan nan nan nan nan nan nan nan nan nan nan nan nan nan nan nan nan nan nan nan nan nan nan nan nan nan 241 254 254 257 264 268 269 269 279 293 287 280 279 279
nan nan nan nan nan nan nan nan nan nan nan nan nan nan nan nan nan nan nan nan nan nan nan nan nan nan nan nan nan nan nan nan nan nan nan nan nan nan nan nan nan nan nan nan nan nan nan nan nan nan nan nan nan nan nan nan nan nan nan nan nan nan nan nan nan nan nan nan nan nan nan 242 252 257 258 261 264 265 nan nan 285 294 289 283 282
nan nan nan nan nan nan nan nan nan nan nan nan nan nan nan nan nan nan nan nan nan nan nan nan nan nan nan nan nan nan nan nan nan nan nan nan nan nan nan nan nan nan nan nan nan nan nan nan nan nan nan nan nan nan nan nan nan nan nan nan nan nan nan nan nan nan nan nan nan nan 242 240 248 253 254 255 256 259 nan nan nan nan nan 290 282
nan nan nan nan nan nan nan nan nan nan nan nan nan nan nan nan nan nan nan nan nan nan nan nan nan nan nan nan nan nan nan nan nan nan nan nan nan nan nan nan nan nan nan nan nan nan nan nan nan nan nan nan nan nan nan nan nan nan nan nan nan nan nan nan nan nan nan nan nan nan 236 242 247 251 250 251 251 253 259 nan nan nan nan nan nan
nan nan nan nan nan nan nan nan nan nan nan nan nan nan nan nan nan nan nan nan nan nan nan nan nan nan nan nan nan nan nan nan nan nan nan nan nan nan nan nan nan nan nan nan nan nan nan nan nan nan nan nan nan nan nan nan nan nan nan nan nan nan nan nan nan nan nan nan nan nan 236 243 244 250 252 248 246 247 nan 257 nan nan nan nan nan